Simultaneous Nadir Overpasses (SNOs) Predictions

Prediction of SNOs between LANDSAT-8 and METOP-B Satellite Orbit:

Table of predicted SNOs for the next 14.0 days since TLE Epoch: 8/20/2015
Index Date (LANDSAT-8) Time (LANDSAT-8) Lat,Lon (LANDSAT-8) SZA (LANDSAT-8 ) Date (METOP-B) Time (METOP-B) Lat,Lon (METOP-B) SZA (METOP-B ) Distance(km) Time Diff (sec)
1 08/22/2015 15:51:46 81.14, -17.70 71.46 08/22/2015 15:51:06 81.13, -17.67 71.45 0.55 40
2 08/22/2015 16:41:12 -81.16, 150.25 108.49 08/22/2015 16:41:46 -81.15, 150.14 108.49 1.97 34
3 08/25/2015 11:26:01 81.14, 48.83 72.45 08/25/2015 11:25:27 81.14, 48.99 72.45 2.78 34
4 08/25/2015 12:15:27 -81.16,-143.20 107.49 08/25/2015 12:16:07 -81.16,-143.17 107.48 0.62 40
5 08/28/2015 07:00:18 81.12, 114.94 73.40 08/28/2015 06:59:51 81.13, 114.88 73.38 1.04 27
6
